| time (UTC) | temp C | wind direction | speed KPH | gust KPH | rain 1hr cm | rain 24hr cm | rain mn cm | humidity % | barometer mb |
| 20260508044005 | 10 | 44 | 1.6 | 4.8 | 0.00 | 0.03 | 0.03 | 91 | 1014.3 |
| 20260508043504 | 10 | 62 | 1.6 | 8.0 | 0.00 | 0.03 | 0.03 | 91 | 1014.3 |
| 20260508042504 | 10 | 47 | 3.2 | 8.0 | 0.00 | 0.03 | 0.03 | 91 | 1014.3 |
| 20260508040504 | 10 | 19 | 1.6 | 4.8 | 0.00 | 0.03 | 0.03 | 91 | 1014.4 |
| 20260508035004 | 10 | 32 | 0.0 | 4.8 | 0.03 | 0.03 | 0.03 | 90 | 1014.5 |
| 20260508033005 | 10 | 355 | 3.2 | 4.8 | 0.03 | 0.03 | 0.03 | 90 | 1014.4 |
| 20260508032504 | 10 | 35 | 1.6 | 8.0 | 0.03 | 0.03 | 0.03 | 90 | 1014.5 |
| 20260508031504 | 10 | 64 | 1.6 | 8.0 | 0.03 | 0.03 | 0.03 | 90 | 1014.6 |
| 20260508031004 | 10 | 127 | 1.6 | 4.8 | 0.03 | 0.03 | 0.03 | 89 | 1014.7 |
| 20260508030504 | 10 | 50 | 0.0 | 4.8 | 0.03 | 0.03 | 0.03 | 89 | 1014.6 |
| 20260508025004 | 10 | 95 | 3.2 | 8.0 | 0.00 | 0.00 | 0.00 | 88 | 1014.7 |
| 20260508023504 | 10 | 140 | 3.2 | 9.7 | 0.00 | 0.00 | 0.00 | 87 | 1014.8 |
| 20260508021004 | 11 | 82 | 3.2 | 8.0 | 0.00 | 0.00 | 0.00 | 87 | 1014.7 |
| 20260508020504 | 11 | 113 | 1.6 | 4.8 | 0.00 | 0.00 | 0.00 | 87 | 1014.8 |
| 20260508020004 | 11 | 136 | 3.2 | 4.8 | 0.00 | 0.00 | 0.00 | 86 | 1014.8 |
| 20260508015006 | 11 | 142 | 3.2 | 9.7 | 0.00 | 0.00 | 0.00 | 85 | 1014.9 |
| 20260508014505 | 11 | 140 | 1.6 | 11.3 | 0.00 | 0.00 | 0.00 | 84 | 1014.9 |
| 20260508014004 | 11 | 148 | 4.8 | 11.3 | 0.00 | 0.00 | 0.00 | 84 | 1015.0 |
| 20260508013504 | 11 | 142 | 3.2 | 12.9 | 0.00 | 0.00 | 0.00 | 83 | 1014.9 |
| 20260508011505 | 11 | 87 | 1.6 | 8.0 | 0.00 | 0.00 | 0.00 | 82 | 1015.0 |
| 20260508011005 | 11 | 127 | 3.2 | 9.7 | 0.00 | 0.00 | 0.00 | 82 | 1015.0 |
| 20260508010504 | 11 | 133 | 4.8 | 9.7 | 0.00 | 0.00 | 0.00 | 81 | 1015.0 |
| 20260508004504 | 11 | 110 | 3.2 | 8.0 | 0.00 | 0.00 | 0.00 | 81 | 1015.0 |
| 20260508003505 | 11 | 144 | 3.2 | 9.7 | 0.00 | 0.00 | 0.00 | 81 | 1015.0 |
| 20260508003006 | 11 | 158 | 3.2 | 11.3 | 0.00 | 0.00 | 0.00 | 81 | 1015.1 |
| 20260508002504 | 11 | 118 | 4.8 | 11.3 | 0.00 | 0.00 | 0.00 | 82 | 1015.1 |
| 20260508000504 | 11 | 132 | 4.8 | 11.3 | 0.00 | 0.00 | 0.00 | 82 | 1015.2 |
| 20260508000005 | 11 | 159 | 4.8 | 9.7 | 0.00 | 0.00 | 0.00 | 82 | 1015.2 |
| 20260507235504 | 11 | 158 | 4.8 | 9.7 | 0.00 | 0.00 | 0.00 | 83 | 1015.2 |
| 20260507225005 | 12 | 114 | 4.8 | 11.3 | 0.00 | 0.00 | 0.00 | 80 | 1015.1 |
| 20260507224004 | 12 | 115 | 4.8 | 12.9 | 0.00 | 0.00 | 0.00 | 79 | 1015.3 |
| 20260507223005 | 12 | 123 | 4.8 | 12.9 | 0.00 | 0.00 | 0.00 | 78 | 1015.2 |
| 20260507222505 | 12 | 142 | 4.8 | 12.9 | 0.00 | 0.00 | 0.00 | 77 | 1015.3 |
| 20260507222004 | 12 | 128 | 4.8 | 14.5 | 0.00 | 0.00 | 0.00 | 76 | 1015.3 |
| 20260507221504 | 12 | 113 | 4.8 | 14.5 | 0.00 | 0.00 | 0.00 | 75 | 1015.3 |
| 20260507220505 | 12 | 121 | 3.2 | 9.7 | 0.00 | 0.00 | 0.00 | 73 | 1015.4 |
| 20260507215505 | 12 | 131 | 6.4 | 11.3 | 0.00 | 0.00 | 0.00 | 71 | 1015.4 |
| 20260507213005 | 12 | 139 | 6.4 | 12.9 | 0.00 | 0.00 | 0.00 | 68 | 1015.4 |
| 20260507212504 | 12 | 119 | 3.2 | 12.9 | 0.00 | 0.00 | 0.00 | 67 | 1015.5 |
| 20260507212005 | 12 | 131 | 3.2 | 11.3 | 0.00 | 0.00 | 0.00 | 65 | 1015.4 |
| 20260507211505 | 12 | 126 | 6.4 | 12.9 | 0.00 | 0.00 | 0.00 | 64 | 1015.4 |
| 20260507205005 | 13 | 104 | 4.8 | 12.9 | 0.00 | 0.00 | 0.00 | 59 | 1015.2 |
| 20260507202005 | 13 | 136 | 3.2 | 4.8 | 0.00 | 0.00 | 0.00 | 58 | 1015.0 |
| 20260507200006 | 13 | 80 | 3.2 | 8.0 | 0.00 | 0.00 | 0.00 | 56 | 1014.8 |
| 20260507195004 | 13 | 87 | 1.6 | 4.8 | 0.00 | 0.00 | 0.00 | 56 | 1014.7 |
| 20260507194005 | 13 | 128 | 3.2 | 4.8 | 0.00 | 0.00 | 0.00 | 56 | 1014.6 |
| 20260507193504 | 13 | 128 | 0.0 | 4.8 | 0.00 | 0.00 | 0.00 | 57 | 1014.5 |
| 20260507192505 | 13 | 136 | 1.6 | 4.8 | 0.00 | 0.00 | 0.00 | 55 | 1014.6 |
| 20260507191004 | 13 | 114 | 3.2 | 8.0 | 0.00 | 0.00 | 0.00 | 54 | 1014.6 |
| 20260507190504 | 13 | 128 | 3.2 | 9.7 | 0.00 | 0.00 | 0.00 | 55 | 1014.6 |
| 20260507185504 | 14 | 173 | 4.8 | 11.3 | 0.00 | 0.00 | 0.00 | 58 | 1014.6 |
| 20260507184004 | 14 | 147 | 6.4 | 11.3 | 0.00 | 0.00 | 0.00 | 57 | 1014.6 |
| 20260507182504 | 14 | 158 | 4.8 | 12.9 | 0.00 | 0.00 | 0.00 | 58 | 1014.5 |
| 20260507181504 | 15 | 146 | 4.8 | 12.9 | 0.00 | 0.00 | 0.00 | 57 | 1014.5 |
| 20260507180005 | 15 | 147 | 4.8 | 12.9 | 0.00 | 0.00 | 0.00 | 55 | 1014.4 |
| 20260507175005 | 15 | 149 | 8.0 | 12.9 | 0.00 | 0.00 | 0.00 | 54 | 1014.3 |
| 20260507174504 | 15 | 156 | 8.0 | 12.9 | 0.00 | 0.00 | 0.00 | 55 | 1014.4 |
| 20260507174004 | 15 | 168 | 6.4 | 12.9 | 0.00 | 0.00 | 0.00 | 54 | 1014.4 |
| 20260507173505 | 15 | 171 | 6.4 | 14.5 | 0.00 | 0.00 | 0.00 | 53 | 1014.4 |
| 20260507172504 | 15 | 142 | 9.7 | 16.1 | 0.00 | 0.00 | 0.00 | 51 | 1014.4 |
| 20260507172005 | 16 | 135 | 9.7 | 16.1 | 0.00 | 0.00 | 0.00 | 51 | 1014.4 |
| 20260507170505 | 16 | 197 | 4.8 | 14.5 | 0.00 | 0.00 | 0.00 | 53 | 1014.3 |
| 20260507165504 | 16 | 165 | 4.8 | 19.3 | 0.00 | 0.00 | 0.00 | 53 | 1014.4 |
| 20260507165005 | 16 | 155 | 9.7 | 19.3 | 0.00 | 0.00 | 0.00 | 54 | 1014.4 |
| 20260507164504 | 16 | 153 | 8.0 | 14.5 | 0.00 | 0.00 | 0.00 | 53 | 1014.3 |
| 20260507164005 | 16 | 164 | 8.0 | 16.1 | 0.00 | 0.00 | 0.00 | 54 | 1014.4 |
| 20260507163504 | 16 | 149 | 8.0 | 19.3 | 0.00 | 0.00 | 0.00 | 54 | 1014.4 |
| 20260507155504 | 16 | 135 | 9.7 | 19.3 | 0.00 | 0.00 | 0.00 | 55 | 1014.5 |
| 20260507155005 | 16 | 115 | 9.7 | 19.3 | 0.00 | 0.00 | 0.00 | 55 | 1014.5 |
| 20260507154504 | 16 | 137 | 8.0 | 19.3 | 0.00 | 0.00 | 0.00 | 55 | 1014.4 |
| 20260507152504 | 17 | 159 | 11.3 | 22.5 | 0.00 | 0.00 | 0.00 | 53 | 1014.5 |
| 20260507152004 | 17 | 158 | 9.7 | 22.5 | 0.00 | 0.00 | 0.00 | 52 | 1014.6 |
| 20260507151005 | 17 | 165 | 11.3 | 22.5 | 0.00 | 0.00 | 0.00 | 54 | 1014.6 |
| 20260507150505 | 17 | 139 | 9.7 | 20.9 | 0.00 | 0.00 | 0.00 | 55 | 1014.6 |
| 20260507144504 | 16 | 155 | 9.7 | 19.3 | 0.00 | 0.00 | 0.00 | 57 | 1014.8 |
| 20260507143504 | 16 | 149 | 9.7 | 25.7 | 0.00 | 0.00 | 0.00 | 57 | 1014.8 |
| 20260507142505 | 15 | 145 | 9.7 | 19.3 | 0.00 | 0.00 | 0.00 | 58 | 1014.9 |
| 20260507142004 | 16 | 149 | 9.7 | 20.9 | 0.00 | 0.00 | 0.00 | 57 | 1015.0 |
| 20260507141004 | 16 | 153 | 11.3 | 22.5 | 0.00 | 0.00 | 0.00 | 55 | 1015.0 |
| 20260507135505 | 17 | 145 | 16.1 | 25.7 | 0.00 | 0.00 | 0.00 | 54 | 1015.0 |
| 20260507135004 | 17 | 157 | 11.3 | 19.3 | 0.00 | 0.00 | 0.00 | 54 | 1015.0 |
| 20260507134005 | 17 | 146 | 9.7 | 27.4 | 0.00 | 0.00 | 0.00 | 52 | 1014.9 |
| 20260507133504 | 17 | 142 | 11.3 | 27.4 | 0.00 | 0.00 | 0.00 | 54 | 1014.9 |
| 20260507132504 | 17 | 173 | 11.3 | 20.9 | 0.00 | 0.00 | 0.00 | 54 | 1015.0 |
| 20260507132004 | 17 | 154 | 11.3 | 22.5 | 0.00 | 0.00 | 0.00 | 56 | 1015.0 |
| 20260507130505 | 17 | 194 | 12.9 | 20.9 | 0.00 | 0.00 | 0.00 | 57 | 1015.1 |
| 20260507130005 | 16 | 182 | 9.7 | 19.3 | 0.00 | 0.00 | 0.00 | 59 | 1015.0 |
| 20260507125505 | 16 | 191 | 9.7 | 27.4 | 0.00 | 0.00 | 0.00 | 57 | 1015.1 |
| 20260507124504 | 16 | 166 | 9.7 | 24.1 | 0.00 | 0.00 | 0.00 | 58 | 1015.1 |
| 20260507123505 | 16 | 143 | 9.7 | 16.1 | 0.00 | 0.00 | 0.00 | 57 | 1015.1 |
| 20260507123005 | 16 | 167 | 8.0 | 16.1 | 0.00 | 0.00 | 0.00 | 56 | 1015.1 |
| 20260507122504 | 16 | 197 | 8.0 | 16.1 | 0.00 | 0.00 | 0.00 | 56 | 1015.1 |
| 20260507122005 | 16 | 144 | 9.7 | 16.1 | 0.00 | 0.00 | 0.00 | 55 | 1015.2 |
| 20260507121505 | 16 | 170 | 8.0 | 16.1 | 0.00 | 0.00 | 0.00 | 55 | 1015.2 |
| 20260507121005 | 17 | 176 | 9.7 | 22.5 | 0.00 | 0.00 | 0.00 | 54 | 1015.2 |
| 20260507120504 | 17 | 157 | 9.7 | 22.5 | 0.00 | 0.00 | 0.00 | 55 | 1015.3 |
| 20260507120006 | 17 | 152 | 8.0 | 20.9 | 0.00 | 0.00 | 0.00 | 57 | 1015.3 |
| 20260507115505 | 17 | 207 | 9.7 | 20.9 | 0.00 | 0.00 | 0.00 | 57 | 1015.3 |
| 20260507115005 | 17 | 143 | 14.5 | 20.9 | 0.00 | 0.00 | 0.00 | 54 | 1015.3 |
| 20260507114004 | 17 | 181 | 12.9 | 20.9 | 0.00 | 0.00 | 0.00 | 55 | 1015.3 |
| 20260507113505 | 16 | 168 | 11.3 | 20.9 | 0.00 | 0.00 | 0.00 | 56 | 1015.3 |
| 20260507112504 | 16 | 155 | 12.9 | 19.3 | 0.00 | 0.00 | 0.00 | 55 | 1015.3 |
| 20260507110504 | 16 | 159 | 9.7 | 19.3 | 0.00 | 0.00 | 0.00 | 60 | 1015.4 |
| 20260507110005 | 16 | 178 | 9.7 | 19.3 | 0.00 | 0.00 | 0.00 | 59 | 1015.5 |
| 20260507105005 | 16 | 205 | 8.0 | 19.3 | 0.00 | 0.00 | 0.00 | 59 | 1015.5 |
| 20260507104505 | 15 | 189 | 8.0 | 19.3 | 0.00 | 0.00 | 0.00 | 61 | 1015.5 |
| 20260507103504 | 15 | 186 | 9.7 | 19.3 | 0.00 | 0.00 | 0.00 | 60 | 1015.5 |
| 20260507103005 | 15 | 178 | 11.3 | 20.9 | 0.00 | 0.00 | 0.00 | 59 | 1015.4 |
| 20260507102505 | 15 | 165 | 11.3 | 20.9 | 0.00 | 0.00 | 0.00 | 60 | 1015.4 |
| 20260507101504 | 15 | 148 | 11.3 | 19.3 | 0.00 | 0.00 | 0.00 | 56 | 1015.4 |
| 20260507100005 | 16 | 158 | 11.3 | 24.1 | 0.00 | 0.00 | 0.00 | 58 | 1015.5 |
| 20260507095004 | 16 | 150 | 8.0 | 19.3 | 0.00 | 0.00 | 0.00 | 61 | 1015.4 |
| 20260507094505 | 16 | 173 | 9.7 | 19.3 | 0.00 | 0.00 | 0.00 | 63 | 1015.4 |
| 20260507092504 | 15 | 147 | 11.3 | 20.9 | 0.00 | 0.00 | 0.00 | 65 | 1015.5 |
| 20260507092004 | 15 | 134 | 9.7 | 20.9 | 0.00 | 0.00 | 0.00 | 69 | 1015.4 |
| 20260507091504 | 15 | 179 | 9.7 | 20.9 | 0.00 | 0.00 | 0.00 | 69 | 1015.4 |
| 20260507091004 | 14 | 170 | 8.0 | 19.3 | 0.00 | 0.00 | 0.00 | 70 | 1015.5 |
| 20260507090504 | 14 | 151 | 8.0 | 19.3 | 0.00 | 0.00 | 0.00 | 70 | 1015.5 |
| 20260507085504 | 14 | 144 | 8.0 | 14.5 | 0.00 | 0.00 | 0.00 | 71 | 1015.6 |
| 20260507084005 | 13 | 152 | 4.8 | 14.5 | 0.00 | 0.00 | 0.00 | 74 | 1015.6 |
| 20260507082505 | 12 | 132 | 4.8 | 12.9 | 0.00 | 0.00 | 0.00 | 77 | 1015.6 |
| 20260507081004 | 12 | 179 | 3.2 | 11.3 | 0.00 | 0.00 | 0.00 | 80 | 1015.6 |
| 20260507075504 | 11 | 147 | 3.2 | 9.7 | 0.00 | 0.00 | 0.00 | 81 | 1015.5 |
| 20260507075005 | 11 | 87 | 4.8 | 9.7 | 0.00 | 0.00 | 0.00 | 80 | 1015.5 |
| 20260507074005 | 11 | 87 | 4.8 | 11.3 | 0.00 | 0.00 | 0.00 | 80 | 1015.4 |
| 20260507073504 | 11 | 86 | 4.8 | 11.3 | 0.00 | 0.00 | 0.00 | 80 | 1015.4 |
| 20260507072504 | 11 | 133 | 4.8 | 9.7 | 0.00 | 0.00 | 0.00 | 80 | 1015.4 |
| 20260507070009 | 10 | 123 | 4.8 | 11.3 | 0.00 | 0.00 | 0.00 | 80 | 1015.3 |
| 20260507064505 | 10 | 135 | 3.2 | 9.7 | 0.00 | 0.00 | 0.00 | 82 | 1015.2 |
| 20260507064005 | 10 | 114 | 3.2 | 9.7 | 0.00 | 0.00 | 0.00 | 82 | 1015.2 |
| 20260507063505 | 9 | 131 | 1.6 | 4.8 | 0.00 | 0.00 | 0.00 | 83 | 1015.2 |
| 20260507062005 | 9 | 139 | 3.2 | 4.8 | 0.00 | 0.00 | 0.00 | 82 | 1015.4 |
| 20260507061504 | 8 | 146 | 3.2 | 4.8 | 0.00 | 0.00 | 0.00 | 82 | 1015.3 |
| 20260507061004 | 8 | 146 | 3.2 | 4.8 | 0.00 | 0.00 | 0.00 | 82 | 1015.3 |
| 20260507055504 | 8 | 123 | 1.6 | 8.0 | 0.00 | 0.00 | 0.00 | 82 | 1015.1 |
| 20260507052004 | 8 | 107 | 1.6 | 3.2 | 0.00 | 0.00 | 0.00 | 80 | 1014.8 |
| 20260507050505 | 8 | 117 | 3.2 | 4.8 | 0.00 | 0.00 | 0.00 | 80 | 1014.9 |
| 20260507050006 | 8 | 100 | 1.6 | 4.8 | 0.00 | 0.00 | 0.00 | 79 | 1014.8 |